When you browse on this site, cookies collect data to enhance your experience and personalize the content and advertising you see.
Visit our Privacy Policy to learn more. By continuing to use the site, you agree to this use of cookies and data.
  • In Sweden
  • List of Countries
  • For 7 days
  • Water Temperature
  • Satellite Maps
  • Weather Map
  • Weather Widgets
  • user-avatar
    Login

    Hourly Weather Bangkinang

    Today, 24 May, Friday

    Time Temperature Precipitation Wind Pressure Humidity
    00:00 +24°C° 0 mm 0 mps 755 mmHg 95%
    01:00 +24°C° 0 mm 0 mps 755 mmHg 95%
    02:00 +24°C° 0 mm 0 mps 754 mmHg 96%
    03:00 +23°C° 0 mm 0 mps 754 mmHg 96%
    04:00 +25°C° 0 mm 1 mps 754 mmHg 96%
    05:00 +23°C° 0 mm 0 mps 754 mmHg 95%
    06:00 +24°C° 0 mm 0 mps 755 mmHg 95%
    07:00 +26°C° 0 mm 1 mps 755 mmHg 92%
    08:00 +28°C° 0 mm 1 mps 755 mmHg 82%
    09:00 +30°C° 0 mm 1 mps 755 mmHg 72%
    10:00 +34°C° 0 mm 2 mps 755 mmHg 62%
    11:00 +35°C° 0 mm 2 mps 754 mmHg 58%
    12:00 +36°C° 0 mm 2 mps 754 mmHg 53%
    13:00 +37°C° 0 mm 2 mps 753 mmHg 48%
    14:00 +36°C° 0 mm 1 mps 753 mmHg 48%
    15:00 +36°C° 0 mm 1 mps 752 mmHg 48%
    16:00 +36°C° 0 mm 1 mps 752 mmHg 48%
    17:00 +34°C° 0 mm 1 mps 752 mmHg 56%
    18:00 +32°C° 0 mm 1 mps 752 mmHg 64%
    19:00 +28°C° 0 mm 0 mps 752 mmHg 71%
    20:00 +27°C° 0 mm 0 mps 753 mmHg 74%
    21:00 +26°C° 0 mm 0 mps 753 mmHg 76%
    22:00 +28°C° 0 mm 1 mps 754 mmHg 78%
    23:00 +25°C° 0 mm 0 mps 754 mmHg 80%

    Tomorrow, 25 May, Saturday

    Time Temperature Precipitation Wind Pressure Humidity
    00:00 +25°C° 0 mm 0 mps 754 mmHg 82%
    01:00 +24°C° 0 mm 0 mps 754 mmHg 84%
    02:00 +24°C° 0 mm 0 mps 754 mmHg 85%
    03:00 +24°C° 0 mm 0 mps 753 mmHg 86%
    04:00 +23°C° 0 mm 0 mps 753 mmHg 87%
    05:00 +23°C° 0 mm 0 mps 753 mmHg 86%
    06:00 +24°C° 0 mm 0 mps 754 mmHg 85%
    07:00 +24°C° 0 mm 0 mps 754 mmHg 85%
    08:00 +28°C° 0 mm 1 mps 754 mmHg 75%
    09:00 +31°C° 0 mm 1 mps 754 mmHg 66%
    10:00 +33°C° 0 mm 1 mps 754 mmHg 57%
    11:00 +34°C° 0 mm 1 mps 754 mmHg 52%
    12:00 +36°C° 0 mm 1 mps 753 mmHg 46%
    13:00 +37°C° 0 mm 1 mps 753 mmHg 41%
    14:00 +37°C° 0 mm 1 mps 752 mmHg 41%
    15:00 +37°C° 0 mm 1 mps 752 mmHg 40%
    16:00 +37°C° 0 mm 1 mps 751 mmHg 40%
    17:00 +35°C° 0 mm 1 mps 751 mmHg 47%
    18:00 +30°C° 0 mm 0 mps 752 mmHg 55%
    19:00 +28°C° 0 mm 0 mps 752 mmHg 62%
    20:00 +27°C° 0 mm 0 mps 753 mmHg 65%
    21:00 +27°C° 0 mm 0 mps 753 mmHg 69%
    22:00 +26°C° 0 mm 0 mps 754 mmHg 72%
    23:00 +26°C° 0 mm 0 mps 754 mmHg 73%

    Day after tomorrow, 26 May, Sunday

    Time Temperature Precipitation Wind Pressure Humidity
    00:00 +26°C° 0 mm 0 mps 754 mmHg 74%
    01:00 +26°C° 0 mm 0 mps 754 mmHg 75%
    02:00 +25°C° 0 mm 0 mps 753 mmHg 77%
    03:00 +25°C° 0 mm 0 mps 753 mmHg 79%
    04:00 +24°C° 0 mm 0 mps 753 mmHg 82%
    05:00 +25°C° 0 mm 0 mps 753 mmHg 82%
    06:00 +25°C° 0 mm 0 mps 753 mmHg 83%
    07:00 +25°C° 0 mm 0 mps 753 mmHg 83%
    08:00 +27°C° 0 mm 0 mps 754 mmHg 75%
    09:00 +31°C° 0 mm 1 mps 754 mmHg 66%
    10:00 +33°C° 0 mm 1 mps 754 mmHg 58%
    11:00 +34°C° 0 mm 1 mps 753 mmHg 54%
    12:00 +36°C° 0 mm 1 mps 753 mmHg 50%
    13:00 +37°C° 0 mm 1 mps 752 mmHg 46%
    14:00 +37°C° 0 mm 1 mps 752 mmHg 47%
    15:00 +36°C° 0 mm 1 mps 751 mmHg 47%
    16:00 +36°C° 0 mm 1 mps 750 mmHg 48%
    17:00 +34°C° 0 mm 1 mps 751 mmHg 55%
    18:00 +33°C° 0 mm 1 mps 751 mmHg 62%
    19:00 +29°C° 0 mm 0 mps 752 mmHg 69%
    20:00 +28°C° 0.3 mm 0 mps 753 mmHg 72%
    21:00 +28°C° 0.3 mm 0 mps 753 mmHg 74%
    22:00 +27°C° 0.3 mm 0 mps 754 mmHg 77%
    23:00 +27°C° 0.2 mm 0 mps 754 mmHg 81%

    27 May, Monday

    Time Temperature Precipitation Wind Pressure Humidity
    00:00 +26°C° 0.2 mm 0 mps 754 mmHg 86%
    01:00 +25°C° 0.2 mm 0 mps 753 mmHg 91%
    02:00 +25°C° 0.6 mm 0 mps 753 mmHg 92%
    03:00 +25°C° 0.6 mm 0 mps 753 mmHg 94%
    04:00 +25°C° 0.6 mm 0 mps 752 mmHg 95%
    05:00 +25°C° 1.6 mm 0 mps 753 mmHg 95%
    06:00 +25°C° 1.6 mm 0 mps 753 mmHg 96%
    07:00 +24°C° 1.6 mm 0 mps 754 mmHg 96%
    08:00 +26°C° 1 mm 0 mps 754 mmHg 93%
    09:00 +27°C° 1 mm 0 mps 754 mmHg 90%
    10:00 +28°C° 1 mm 0 mps 754 mmHg 87%
    11:00 +30°C° 0.4 mm 0 mps 753 mmHg 76%
    12:00 +32°C° 0.4 mm 0 mps 753 mmHg 65%
    13:00 +34°C° 0.4 mm 0 mps 752 mmHg 54%
    14:00 +34°C° 0 mm 0 mps 752 mmHg 55%
    15:00 +33°C° 0 mm 0 mps 751 mmHg 57%
    16:00 +32°C° 0 mm 0 mps 750 mmHg 58%
    17:00 +31°C° 0.5 mm 0 mps 751 mmHg 67%
    18:00 +29°C° 0.5 mm 0 mps 752 mmHg 77%
    19:00 +27°C° 0.5 mm 0 mps 752 mmHg 86%
    20:00 +26°C° 3.9 mm 0 mps 753 mmHg 89%
    21:00 +26°C° 3.9 mm 0 mps 753 mmHg 93%
    22:00 +25°C° 3.9 mm 0 mps 754 mmHg 97%
    23:00 +25°C° 1.4 mm 0 mps 754 mmHg 97%

    28 May, Tuesday

    Time Temperature Precipitation Wind Pressure Humidity
    00:00 +25°C° 1.4 mm 0 mps 753 mmHg 97%
    01:00 +25°C° 1.4 mm 0 mps 753 mmHg 97%
    02:00 +25°C° 1.8 mm 0 mps 753 mmHg 96%
    03:00 +24°C° 1.8 mm 0 mps 752 mmHg 96%
    04:00 +24°C° 1.8 mm 0 mps 752 mmHg 96%
    05:00 +24°C° 0 mm 0 mps 753 mmHg 96%
    06:00 +24°C° 0 mm 0 mps 753 mmHg 96%
    07:00 +24°C° 0 mm 0 mps 754 mmHg 96%
    08:00 +27°C° 0.3 mm 1 mps 754 mmHg 92%
    09:00 +29°C° 0.3 mm 1 mps 754 mmHg 88%
    10:00 +30°C° 0.3 mm 1 mps 754 mmHg 84%
    11:00 +31°C° 0 mm 1 mps 754 mmHg 75%
    12:00 +33°C° 0 mm 1 mps 753 mmHg 66%
    13:00 +34°C° 0 mm 1 mps 752 mmHg 57%
    14:00 +34°C° 0 mm 1 mps 752 mmHg 58%
    15:00 +34°C° 0 mm 1 mps 751 mmHg 59%
    16:00 +34°C° 0 mm 1 mps 750 mmHg 60%
    17:00 +32°C° 0 mm 1 mps 751 mmHg 66%
    18:00 +31°C° 0 mm 1 mps 751 mmHg 72%
    19:00 +27°C° 0 mm 0 mps 752 mmHg 78%
    20:00 +27°C° 0.3 mm 0 mps 752 mmHg 82%
    21:00 +26°C° 0.3 mm 0 mps 753 mmHg 85%
    22:00 +25°C° 0.3 mm 0 mps 754 mmHg 89%
    23:00 +25°C° 0.9 mm 0 mps 753 mmHg 92%

    29 May, Wednesday

    Time Temperature Precipitation Wind Pressure Humidity
    00:00 +25°C° 0.9 mm 0 mps 753 mmHg 94%
    01:00 +24°C° 0.9 mm 0 mps 753 mmHg 97%
    02:00 +24°C° 0.2 mm 0 mps 753 mmHg 97%
    03:00 +24°C° 0.2 mm 0 mps 753 mmHg 97%
    04:00 +24°C° 0.2 mm 0 mps 752 mmHg 97%
    05:00 +24°C° 0.4 mm 0 mps 753 mmHg 97%
    06:00 +24°C° 0.4 mm 0 mps 753 mmHg 97%
    07:00 +24°C° 0.4 mm 0 mps 754 mmHg 97%
    08:00 +27°C° 1 mm 1 mps 754 mmHg 94%
    09:00 +29°C° 1 mm 1 mps 754 mmHg 91%
    10:00 +30°C° 1 mm 1 mps 755 mmHg 88%
    11:00 +31°C° 0.4 mm 1 mps 754 mmHg 81%
    12:00 +32°C° 0.4 mm 1 mps 753 mmHg 74%
    13:00 +33°C° 0.4 mm 1 mps 753 mmHg 68%
    14:00 +33°C° 0.2 mm 1 mps 752 mmHg 66%
    15:00 +33°C° 0.2 mm 1 mps 752 mmHg 65%
    16:00 +31°C° 0.2 mm 0 mps 751 mmHg 64%
    17:00 +31°C° 0 mm 1 mps 752 mmHg 70%
    18:00 +30°C° 0 mm 1 mps 752 mmHg 77%
    19:00 +28°C° 0 mm 1 mps 753 mmHg 83%
    20:00 +26°C° 0.2 mm 0 mps 754 mmHg 85%
    21:00 +25°C° 0.2 mm 0 mps 754 mmHg 88%
    22:00 +25°C° 0.2 mm 0 mps 755 mmHg 90%
    23:00 +25°C° 0.2 mm 0 mps 754 mmHg 90%
    Show more